1483315200.97,26104,10.44,73058.3,-6.19,-40.03,-40.41,0,*59
1483315202.23,26105,10.44,73062.5,-6.17,-40.09,-40.29,0,*52
1483315203.51,26106,10.44,73064.3,-6.19,-40.21,-40.41,0,*5B
1483315204.78,26107,10.5,73062.3,-6.19,-39.79,-40.03,0,*5F
1483315206.04,26108,10.44,73058.3,-6.19,-39.53,-39.85,0,*58
1483315207.31,26109,10.44,73048.0,-6.19,-38.85,-39.15,0,*5A
1483315208.54,26110,10.44,73052.8,-6.17,-39.09,-39.29,0,*56
1483315209.8,26111,10.44,73060.3,-6.17,-38.91,-39.15,0,*58
1483315211.06,26112,10.44,73070.8,-6.13,-38.67,-38.91,0,*5B
1483315212.31,26113,10.44,73060.8,-6.13,-38.67,-38.91,0,*5A
1483315213.57,26114,10.44,73060.5,-6.13,-39.03,-39.41,0,*52
1483315214.78,26115,10.44,73070.8,-6.13,-38.73,-38.85,0,*5C
1483315216.01,26116,10.5,73068.3,-6.13,-38.73,-38.91,0,*5A
1483315217.24,26117,10.44,73068.5,-6.11,-38.73,-39.09,0,*59
1483315218.5,26118,10.44,73060.3,-6.09,-39.03,-39.41,0,*55
1483315219.76,26119,10.44,73066.0,-6.09,-39.15,-39.53,0,*50
1483315221.02,26120,10.44,73066.3,-6.09,-38.79,-39.15,0,*53
1483315222.22,26121,10.44,73064.5,-6.09,-38.85,-39.35,0,*53
1483315223.51,26122,10.44,73056.3,-6.07,-39.41,-39.79,0,*5F
1483315224.76,26123,10.44,73056.3,-6.05,-39.53,-39.79,0,*5F
1483315226.06,26124,10.44,73066.5,-6.07,-39.59,-39.97,0,*50
1483315227.32,26125,10.44,73062.5,-6.07,-39.59,-39.85,0,*52
1483315228.62,26126,10.44,73048.3,-6.07,-39.59,-39.97,0,*52
1483315229.85,26127,10.44,73058.5,-6.07,-39.65,-40.03,0,*5F
1483315231.11,26128,10.44,73054.3,-6.07,-39.97,-40.15,0,*5A
1483315232.36,26129,10.44,73066.5,-6.07,-39.97,-40.35,0,*59
1483315233.59,26130,10.44,73052.3,-6.05,-39.41,-39.85,0,*5D
1483315234.88,26131,10.44,73054.5,-6.07,-39.41,-39.79,0,*5D
1483315236.16,26132,10.44,73060.0,-6.07,-39.53,-39.79,0,*5D
1483315237.43,26133,10.44,73066.5,-6.05,-39.79,-40.09,0,*5F
1483315238.7,26134,10.44,73068.3,-6.07,-39.79,-40.03,0,*50
1483315239.96,26135,10.44,73066.0,-6.05,-39.41,-39.79,0,*5B
1483315241.22,26136,10.44,73058.5,-6.05,-39.71,-39.97,0,*5B
1483315242.48,26137,10.44,73058.0,-6.07,-39.97,-40.35,0,*56
1483315243.74,26138,10.44,73060.8,-6.05,-39.71,-39.97,0,*55
1483315245.0,26139,10.44,73062.0,-6.05,-39.53,-39.79,0,*54
1483315246.26,26140,10.44,73058.3,-6.07,-39.41,-39.65,0,*56
1483315247.45,26141,10.44,73072.0,-6.05,-38.97,-39.35,0,*5A
1483315248.67,26142,10.44,73062.8,-6.05,-39.47,-39.91,0,*5B
1483315249.93,26143,10.44,73060.5,-6.07,-39.59,-39.85,0,*52
1483315251.2,26144,10.44,73058.3,-6.05,-39.79,-40.09,0,*5F
1483315252.44,26145,10.44,73054.3,-6.05,-39.79,-39.91,0,*51
1483315253.71,26146,10.44,73062.8,-6.05,-39.71,-40.09,0,*55
1483315254.95,26147,10.44,73068.3,-6.05,-39.91,-40.29,0,*58
1483315256.17,26148,10.44,73072.8,-6.05,-39.97,-40.47,0,*59
1483315257.39,26149,10.44,73068.3,-6.05,-40.15,-40.53,0,*59
1483315258.65,26150,10.44,73078.3,-6.07,-40.35,-40.79,0,*59
1483315259.9,26151,10.44,73074.5,-6.05,-40.29,-40.79,0,*57
1483315261.18,26152,10.44,73070.0,-6.07,-40.41,-40.79,0,*58
1483315262.4,26153,10.44,73076.0,-6.05,-40.47,-40.91,0,*5B
1483315263.6,26154,10.44,73066.0,-6.05,-40.65,-40.91,0,*5C
1483315264.83,26155,10.44,73062.0,-6.05,-40.47,-40.79,0,*5B
1483315266.12,26156,10.44,73064.3,-6.07,-40.41,-40.79,0,*5C
1483315267.36,26157,10.44,73056.8,-6.07,-40.15,-40.53,0,*54
1483315268.59,26158,10.44,73060.3,-6.05,-39.97,-40.35,0,*5D
1483315269.8,26159,10.44,73070.8,-6.05,-40.15,-40.65,0,*5D
1483315271.04,26160,10.44,73056.8,-6.07,-40.35,-40.73,0,*50
1483315272.3,26161,10.44,73060.3,-6.07,-40.35,-40.85,0,*58
1483315273.56,26162,10.44,73066.5,-6.07,-40.59,-41.03,0,*5E
1483315274.83,26163,10.44,73062.5,-6.07,-40.73,-40.97,0,*5B
1483315276.06,26164,10.44,73062.0,-6.07,-40.53,-41.03,0,*52
1483315277.3,26165,10.44,73074.8,-6.07,-40.53,-41.03,0,*53
1483315278.53,26166,10.44,73054.8,-6.09,-40.53,-40.97,0,*52
1483315279.77,26167,10.44,73056.3,-6.09,-40.73,-40.97,0,*51
1483315280.98,26168,10.44,73064.3,-6.09,-40.73,-41.03,0,*52
1483315282.19,26169,10.44,73062.0,-6.09,-40.73,-41.03,0,*53
1483315283.44,26170,10.44,73060.8,-6.11,-40.79,-41.11,0,*5B
1483315284.68,26171,10.44,73062.0,-6.11,-40.65,-41.03,0,*54
1483315285.94,26172,10.44,73068.3,-6.11,-40.47,-40.85,0,*58
1483315287.23,26173,10.5,73068.5,-6.11,-40.41,-40.59,0,*5E
1483315288.5,26174,10.44,73066.0,-6.11,-40.47,-40.85,0,*5E
1483315289.7,26175,10.44,73074.5,-6.09,-40.35,-40.53,0,*58
1483315290.93,26176,10.44,73070.8,-6.09,-39.97,-40.15,0,*5F
1483315292.19,26177,10.44,73076.5,-6.11,-40.21,-40.47,0,*53
1483315293.48,26178,10.44,73078.0,-6.11,-40.09,-40.41,0,*50
1483315294.71,26179,10.5,73074.3,-6.13,-40.21,-40.47,0,*5F
1483315295.96,26180,10.44,73064.5,-6.11,-40.47,-40.79,0,*56
1483315297.22,26181,10.44,73070.8,-6.11,-40.79,-41.11,0,*55
1483315298.48,26182,10.44,73078.0,-6.11,-40.85,-41.11,0,*55
1483315299.72,26183,10.5,73082.5,-6.13,-40.85,-41.11,0,*56
1483315300.96,26184,10.44,73082.5,-6.13,-40.91,-41.23,0,*55
1483315302.2,26185,10.5,73088.5,-6.13,-40.91,-41.23,0,*54
1483315303.41,26186,10.44,73082.0,-6.13,-41.11,-41.29,0,*54
1483315304.63,26187,10.44,73080.5,-6.13,-41.03,-41.29,0,*56
1483315305.84,26188,10.44,73076.0,-6.13,-41.11,-41.29,0,*5A
1483315307.08,26189,10.44,73084.0,-6.13,-41.03,-41.23,0,*52
1483315308.31,26190,10.44,73082.0,-6.17,-41.17,-41.55,0,*5A
1483315309.51,26191,10.44,73078.5,-6.17,-41.11,-41.49,0,*50
1483315310.75,26192,10.44,73072.8,-6.17,-41.11,-41.35,0,*58
1483315311.98,26193,10.44,73072.0,-6.17,-41.11,-41.35,0,*59
1483315313.22,26194,10.44,73080.5,-6.19,-41.17,-41.41,0,*55
1483315314.46,26195,10.44,73090.8,-6.19,-41.17,-41.41,0,*54
1483315315.73,26196,10.44,73092.0,-6.19,-41.03,-41.35,0,*51
1483315316.97,26197,10.44,73088.3,-6.21,-41.03,-41.35,0,*5B
1483315318.2,26198,10.44,73084.8,-6.21,-40.91,-41.35,0,*5E
1483315319.42,26199,10.44,73086.8,-6.21,-40.91,-41.17,0,*5F
1483315320.68,26200,10.44,73096.0,-6.23,-40.79,-41.11,0,*5E
1483315321.96,26201,10.44,73096.3,-6.23,-40.59,-40.79,0,*52
1483315323.19,26202,10.44,73088.0,-6.21,-40.21,-40.53,0,*54
1483315324.41,26203,10.44,73084.8,-6.21,-40.53,-40.59,0,*5A
1483315325.65,26204,10.44,73088.5,-6.21,-40.41,-40.73,0,*56
1483315326.92,26205,10.44,73086.5,-6.21,-40.41,-40.59,0,*5F
1483315328.15,26206,10.44,73088.0,-6.23,-40.47,-40.73,0,*50
1483315329.43,26207,10.44,73080.8,-6.23,-40.41,-40.79,0,*5D
1483315330.69,26208,10.44,73090.3,-6.23,-40.47,-40.79,0,*54
1483315331.95,26209,10.44,73088.8,-6.23,-40.47,-40.79,0,*55
1483315333.2,26210,10.44,73082.8,-6.23,-40.21,-40.47,0,*50
1483315334.44,26211,10.44,73082.3,-6.21,-40.15,-40.41,0,*52
1483315335.7,26212,10.44,73080.3,-6.23,-40.29,-40.65,0,*5A
1483315336.96,26213,10.44,73072.5,-6.23,-40.41,-40.65,0,*55
1483315338.22,26214,10.44,73080.3,-6.23,-40.47,-40.59,0,*5B
1483315339.45,26215,10.44,73078.0,-6.21,-40.03,-40.21,0,*57
1483315340.67,26216,10.44,73078.5,-6.21,-39.85,-40.15,0,*53
1483315341.91,26217,10.44,73080.0,-6.21,-39.79,-40.15,0,*51
1483315343.18,26218,10.44,73084.8,-6.23,-39.79,-39.91,0,*5E
1483315344.39,26219,10.44,73084.3,-6.21,-39.65,-39.91,0,*50
1483315345.63,26220,10.44,73082.5,-6.23,-39.47,-39.85,0,*5D
1483315346.86,26221,10.44,73090.0,-6.21,-39.41,-39.85,0,*58
1483315348.09,26222,10.44,73096.0,-6.21,-39.41,-39.85,0,*5B
1483315349.33,26223,10.44,73088.5,-6.21,-39.79,-40.15,0,*56
1483315350.63,26224,10.44,73092.8,-6.19,-39.79,-40.09,0,*57
1483315351.9,26225,10.44,73096.0,-6.19,-39.59,-40.03,0,*5E
1483315353.13,26226,10.44,73088.5,-6.17,-39.53,-39.85,0,*59
1483315354.39,26227,10.44,73088.3,-6.19,-39.53,-39.85,0,*56
1483315355.6,26228,10.44,73080.8,-6.17,-39.91,-40.15,0,*5E
1483315356.88,26229,10.44,73072.0,-6.19,-40.15,-40.41,0,*52
1483315358.14,26230,10.44,73060.5,-6.19,-40.35,-40.59,0,*51
1483315359.41,26231,10.44,73066.5,-6.19,-40.41,-40.73,0,*5B
1483315360.65,26232,10.44,73070.5,-6.19,-40.35,-40.73,0,*5B
1483315361.9,26233,10.44,73064.3,-6.19,-40.53,-40.79,0,*50
1483315363.15,26234,10.44,73062.5,-6.19,-40.53,-40.79,0,*57
1483315364.39,26235,10.44,73068.8,-6.19,-40.53,-40.91,0,*50
1483315365.63,26236,10.44,73066.3,-6.19,-40.53,-40.91,0,*53
1483315366.86,26237,10.44,73066.8,-6.19,-40.53,-40.91,0,*52
1483315368.13,26238,10.44,73068.5,-6.19,-40.53,-40.97,0,*5B
1483315369.39,26239,10.44,73072.0,-6.19,-40.59,-41.03,0,*5C
1483315370.65,26240,10.44,73082.5,-6.19,-40.59,-40.73,0,*54
1483315371.88,26241,10.44,73068.8,-6.21,-40.21,-40.53,0,*53
1483315373.17,26242,10.44,73068.5,-6.23,-40.21,-40.41,0,*51
1483315374.39,26243,10.44,73070.0,-6.21,-39.97,-40.03,0,*57
1483315375.62,26244,10.44,73078.3,-6.21,-40.03,-40.21,0,*53
1483315376.83,26245,10.44,73088.3,-6.21,-39.85,-40.03,0,*52
1483315378.05,26246,10.44,73078.0,-6.21,-39.85,-40.15,0,*56
1483315379.31,26247,10.44,73066.0,-6.19,-39.85,-40.21,0,*5B
1483315380.56,26248,10.44,73062.0,-6.19,-40.15,-40.53,0,*56
1483315381.8,26249,10.44,73054.0,-6.19,-40.35,-40.53,0,*55
1483315383.06,26250,10.44,73064.5,-6.19,-40.21,-40.53,0,*58
1483315384.32,26251,10.44,73064.8,-6.19,-40.21,-40.53,0,*59
1483315385.54,26252,10.44,73064.3,-6.21,-40.35,-40.79,0,*5C
1483315386.75,26253,10.44,73064.5,-6.21,-40.53,-40.91,0,*5B
1483315388.01,26254,10.44,73052.0,-6.21,-39.97,-40.21,0,*51
1483315389.24,26255,10.44,73046.8,-6.21,-39.97,-40.15,0,*57
1483315390.48,26256,10.44,73054.8,-6.21,-39.79,-40.15,0,*54
1483315391.74,26257,10.44,73048.8,-6.21,-39.41,-39.79,0,*5A
1483315393.01,26258,10.44,73058.8,-6.21,-39.59,-39.97,0,*5C
1483315394.28,26259,10.44,73070.8,-6.19,-39.79,-40.03,0,*57
1483315395.54,26260,10.44,73068.3,-6.19,-39.97,-40.35,0,*58
1483315396.8,26261,10.44,73072.5,-6.19,-39.97,-40.35,0,*59
1483315398.08,26262,10.44,73072.3,-6.19,-39.97,-40.21,0,*5F
1483315399.34,26263,10.44,73068.0,-6.19,-40.03,-40.21,0,*5D
1483315400.59,26264,10.44,73074.0,-6.19,-40.15,-40.53,0,*58
1483315401.83,26265,10.44,73066.8,-6.19,-40.35,-40.73,0,*59
1483315403.08,26266,10.44,73070.0,-6.19,-40.21,-40.73,0,*5F
1483315404.28,26267,10.44,73070.8,-6.21,-40.53,-40.73,0,*50
1483315405.52,26268,10.5,73074.3,-6.21,-40.41,-40.73,0,*5C
1483315406.77,26269,10.44,73066.5,-6.21,-40.59,-40.79,0,*5E
1483315408.01,26270,10.44,73060.5,-6.21,-40.41,-40.73,0,*55
1483315409.25,26271,10.44,73078.0,-6.21,-40.35,-40.59,0,*5F
1483315410.45,26272,10.44,73074.5,-6.21,-40.35,-40.73,0,*54
1483315411.71,26273,10.44,73076.3,-6.21,-40.21,-40.59,0,*58
1483315412.96,26274,10.44,73078.0,-6.21,-40.21,-40.59,0,*5F
1483315414.17,26275,10.44,73074.8,-6.21,-40.35,-40.73,0,*53
1483315415.43,26276,10.44,73080.0,-6.21,-40.59,-40.97,0,*50
1483315416.66,26277,10.44,73084.5,-6.23,-40.65,-41.11,0,*53
1483315417.89,26278,10.44,73092.3,-6.23,-40.65,-41.11,0,*5C
1483315419.13,26279,10.44,73088.8,-6.21,-40.59,-40.91,0,*59
1483315420.36,26280,10.44,73090.5,-6.23,-40.65,-41.11,0,*5B
1483315421.57,26281,10.44,73084.8,-6.25,-40.65,-41.11,0,*5C
1483315422.83,26282,10.44,73086.5,-6.25,-40.79,-41.23,0,*53
1483315424.08,26283,10.44,73092.5,-6.29,-40.79,-41.29,0,*54
1483315425.31,26284,10.44,73094.0,-6.25,-40.79,-41.11,0,*54
1483315426.57,26285,10.44,73098.8,-6.25,-40.59,-40.85,0,*5B
1483315427.81,26286,10.44,73084.8,-6.29,-40.15,-40.73,0,*55
1483315429.06,26287,10.44,73088.0,-6.29,-39.97,-40.35,0,*52
1483315430.29,26288,10.44,73080.5,-6.29,-39.91,-40.15,0,*59
1483315431.53,26289,10.44,73078.0,-6.25,-39.79,-40.03,0,*55
1483315432.78,26290,10.44,73080.8,-6.25,-40.03,-40.41,0,*58
1483315434.0,26291,10.44,73086.0,-6.29,-40.35,-40.53,0,*53
1483315435.25,26292,10.44,73082.5,-6.25,-39.85,-40.09,0,*56
1483315436.5,26293,10.44,73078.3,-6.29,-39.91,-40.29,0,*5C
1483315437.78,26294,10.44,73074.0,-6.25,-39.79,-40.09,0,*53
1483315439.04,26295,10.44,73072.3,-6.29,-39.65,-40.09,0,*53
1483315440.25,26296,10.44,73056.5,-6.25,-39.47,-39.85,0,*56
1483315441.49,26297,10.44,73072.8,-6.25,-39.85,-40.21,0,*59
1483315442.73,26298,10.44,73070.0,-6.25,-39.85,-40.09,0,*5C
1483315444.0,26299,10.44,73064.5,-6.25,-39.79,-40.21,0,*54
1483315445.24,26300,10.44,73066.8,-6.25,-39.41,-39.91,0,*5B
1483315446.45,26301,10.44,73064.5,-6.25,-39.47,-40.03,0,*59
1483315447.72,26302,10.44,73076.0,-6.25,-39.79,-40.21,0,*57
1483315448.96,26303,10.44,73074.0,-6.25,-39.91,-40.29,0,*58
1483315450.24,26304,10.44,73076.5,-6.25,-39.79,-40.09,0,*5B
1483315451.48,26305,10.44,73082.3,-6.25,-39.85,-40.21,0,*53
1483315452.72,26306,10.44,73076.3,-6.25,-39.91,-40.29,0,*5D
1483315453.96,26307,10.44,73076.8,-6.25,-40.03,-40.41,0,*57
1483315455.2,26308,10.44,73072.8,-6.25,-40.09,-40.47,0,*54
1483315456.46,26309,10.44,73076.5,-6.25,-40.21,-40.59,0,*50
1483315457.71,26310,10.44,73076.3,-6.25,-40.21,-40.59,0,*58
1483315458.95,26311,10.44,73078.5,-6.25,-40.09,-40.47,0,*5C
1483315460.2,26312,10.44,73076.8,-6.25,-39.91,-40.41,0,*56
1483315461.44,26313,10.44,73056.0,-6.25,-39.91,-40.21,0,*51
1483315462.7,26314,10.44,73064.5,-6.29,-39.85,-40.29,0,*57
1483315463.97,26315,10.44,73066.5,-6.25,-39.79,-40.09,0,*5B
1483315465.21,26316,10.44,73060.8,-6.25,-39.41,-39.91,0,*5C
1483315466.42,26317,10.44,73064.8,-6.25,-39.65,-40.03,0,*5E
1483315467.67,26318,10.44,73060.0,-6.25,-39.59,-39.91,0,*5B
1483315468.91,26319,10.44,73052.5,-6.25,-39.59,-40.03,0,*5F
1483315470.15,26320,10.44,73076.3,-6.25,-39.91,-40.29,0,*59
1483315471.41,26321,10.44,73078.0,-6.23,-40.09,-40.47,0,*59
1483315472.68,26322,10.44,73064.5,-6.23,-40.09,-40.47,0,*5A
1483315473.93,26323,10.44,73070.3,-6.21,-40.21,-40.59,0,*5C
1483315475.19,26324,10.5,73078.5,-6.23,-40.47,-40.79,0,*5B
1483315476.47,26325,10.44,73078.5,-6.23,-40.59,-40.79,0,*55
1483315477.71,26326,10.44,73090.3,-6.25,-40.47,-40.85,0,*5C
1483315478.93,26327,10.44,73090.8,-6.29,-40.35,-40.65,0,*5A
1483315480.17,26328,10.44,73086.3,-6.25,-40.03,-40.41,0,*5A
1483315481.41,26329,10.44,73080.5,-6.25,-40.03,-40.41,0,*5B
1483315482.67,26330,10.44,73082.3,-6.29,-39.91,-40.29,0,*54
1483315483.9,26331,10.44,73082.8,-6.25,-40.21,-40.47,0,*54
1483315485.14,26332,10.44,73080.3,-6.25,-40.09,-40.47,0,*5D
1483315486.39,26333,10.44,73078.0,-6.29,-39.85,-40.29,0,*52
1483315487.66,26334,10.44,73080.5,-6.25,-39.79,-40.21,0,*52
1483315488.91,26335,10.44,73072.8,-6.25,-39.65,-40.09,0,*54
1483315490.18,26336,10.44,73068.8,-6.25,-39.79,-40.21,0,*50
1483315491.45,26337,10.44,73066.5,-6.25,-39.79,-40.09,0,*5B
1483315492.69,26338,10.5,73066.5,-6.25,-39.85,-40.29,0,*55
1483315493.93,26339,10.44,73074.3,-6.25,-40.09,-40.47,0,*56
1483315495.16,26340,10.44,73072.0,-6.25,-40.21,-40.65,0,*52
1483315496.4,26341,10.44,73066.5,-6.25,-40.09,-40.47,0,*59
1483315497.66,26342,10.44,73066.5,-6.29,-40.09,-40.53,0,*53
1483315498.88,26343,10.44,73060.3,-6.25,-40.21,-40.47,0,*51
1483315500.14,26344,10.44,73070.0,-6.25,-40.21,-40.59,0,*59
1483315501.4,26345,10.5,73070.0,-6.25,-40.41,-40.79,0,*5C
1483315502.63,26346,10.44,73074.5,-6.29,-40.65,-41.03,0,*59
1483315503.85,26347,10.44,73076.8,-6.29,-40.65,-41.17,0,*5D
1483315505.11,26348,10.44,73082.5,-6.29,-40.65,-40.97,0,*5B
1483315506.34,26349,10.44,73084.8,-6.25,-40.59,-41.11,0,*56
1483315507.57,26350,10.44,73082.3,-6.29,-40.65,-41.03,0,*5E
1483315508.8,26351,10.44,73084.3,-6.29,-40.53,-41.03,0,*5A
1483315510.02,26352,10.44,73076.5,-6.29,-40.53,-40.91,0,*53
1483315511.25,26353,10.44,73080.0,-6.29,-40.53,-40.91,0,*52
1483315512.46,26354,10.44,73080.3,-6.31,-40.47,-40.91,0,*59
1483315513.66,26355,10.44,73078.0,-6.31,-40.53,-41.03,0,*57
1483315514.86,26356,10.44,73080.8,-6.31,-40.65,-41.11,0,*52
1483315516.06,26357,10.44,73078.3,-6.31,-40.65,-41.11,0,*53
1483315517.27,26358,10.44,73074.8,-6.31,-40.65,-40.91,0,*55
1483315518.55,26359,10.44,73086.8,-6.33,-40.79,-41.23,0,*53
1483315519.75,26360,10.44,73078.5,-6.31,-40.73,-41.29,0,*5B
1483315521.02,26361,10.44,73080.3,-6.33,-40.79,-41.23,0,*58
1483315522.26,26362,10.44,73090.5,-6.31,-40.91,-41.23,0,*5F
1483315523.46,26363,10.44,73102.3,-6.31,-40.47,-40.73,0,*51
1483315524.74,26364,10.5,73090.5,-6.33,-40.41,-40.79,0,*58
1483315525.95,26365,10.44,73080.8,-6.31,-40.47,-40.73,0,*57
1483315527.22,26366,10.44,73076.0,-6.33,-40.59,-40.79,0,*53
1483315528.48,26367,10.44,73076.5,-6.33,-40.59,-41.11,0,*5D
1483315529.71,26368,10.44,73084.5,-6.33,-40.73,-41.17,0,*5C
1483315530.94,26369,10.44,73084.3,-6.35,-40.59,-41.11,0,*55
1483315532.21,26370,10.44,73080.3,-6.35,-40.09,-40.59,0,*55
1483315533.49,26371,10.44,73086.5,-6.37,-40.41,-40.79,0,*58
1483315534.7,26372,10.44,73076.0,-6.35,-40.15,-40.53,0,*50
1483315535.92,26373,10.5,73082.5,-6.35,-40.15,-40.53,0,*51
1483315537.16,26374,10.44,73080.0,-6.35,-39.91,-40.21,0,*51
1483315538.4,26375,10.44,73084.3,-6.35,-40.03,-40.41,0,*53
1483315539.68,26376,10.44,73074.8,-6.33,-39.97,-40.41,0,*55
1483315540.9,26377,10.44,73080.3,-6.35,-40.15,-40.53,0,*55
1483315542.12,26378,10.44,73082.8,-6.35,-40.21,-40.73,0,*5F
1483315543.38,26379,10.44,73090.5,-6.35,-39.97,-40.41,0,*5C
1483315544.62,26380,10.44,73076.8,-6.35,-39.41,-39.91,0,*52
1483315545.86,26381,10.44,73080.0,-6.35,-39.79,-40.15,0,*5A
1483315547.1,26382,10.44,73090.0,-6.35,-39.79,-40.15,0,*59
1483315548.35,26383,10.44,73084.8,-6.33,-39.97,-40.35,0,*5C
1483315549.62,26384,10.44,73092.0,-6.33,-39.91,-40.21,0,*58
1483315550.88,26385,10.44,73086.3,-6.33,-39.91,-40.21,0,*59
1483315552.09,26386,10.44,73080.3,-6.31,-39.85,-40.15,0,*5A
1483315553.37,26387,10.44,73080.3,-6.33,-39.71,-40.21,0,*55
1483315554.66,26388,10.44,73076.5,-6.33,-39.59,-39.97,0,*53
1483315555.92,26389,10.44,73064.5,-6.33,-39.59,-40.03,0,*51
1483315557.13,26390,10.44,73080.3,-6.31,-39.65,-39.91,0,*51
1483315558.34,26391,10.44,73076.5,-6.31,-39.47,-39.85,0,*55
1483315559.62,26392,10.44,73080.0,-6.33,-39.41,-39.97,0,*51
1483315560.87,26393,10.5,73092.3,-6.33,-39.41,-40.03,0,*53
1483315562.12,26394,10.44,73084.5,-6.31,-39.29,-39.71,0,*53
1483315563.36,26395,10.44,73084.5,-6.31,-39.47,-39.97,0,*52
1483315564.56,26396,10.44,73078.5,-6.31,-39.35,-39.91,0,*52
1483315565.76,26397,10.44,73080.5,-6.31,-39.09,-39.47,0,*57
1483315567.04,26398,10.44,73080.5,-6.29,-39.15,-39.53,0,*59
1483315568.29,26399,10.44,73076.8,-6.29,-39.53,-39.91,0,*54
1483315569.52,26400,10.44,73078.0,-6.29,-39.47,-39.91,0,*56
1483315570.78,26401,10.44,73092.8,-6.29,-39.65,-39.97,0,*51
1483315571.99,26402,10.44,73096.8,-6.25,-39.47,-40.03,0,*5D
1483315573.25,26403,10.44,73090.5,-6.29,-39.65,-39.97,0,*53
1483315574.5,26404,10.44,73094.5,-6.29,-39.47,-39.97,0,*54
1483315575.72,26405,10.44,73090.8,-6.25,-39.47,-39.91,0,*5F
1483315576.98,26406,10.44,73090.8,-6.29,-39.71,-40.15,0,*57
1483315578.22,26407,10.44,73082.5,-6.25,-39.85,-40.21,0,*56
1483315579.48,26408,10.44,73088.0,-6.25,-40.09,-40.41,0,*55
1483315580.75,26409,10.44,73088.3,-6.25,-40.09,-40.59,0,*5D
1483315581.98,26410,10.44,73090.0,-6.25,-40.21,-40.47,0,*50
1483315583.24,26411,10.44,73088.0,-6.25,-40.29,-40.59,0,*56
1483315584.5,26412,10.44,73084.0,-6.29,-40.09,-40.47,0,*54
1483315585.76,26413,10.44,73096.3,-6.25,-40.09,-40.29,0,*51
1483315587.02,26414,10.44,73080.8,-6.29,-39.65,-40.09,0,*5C
1483315588.29,26415,10.44,73078.5,-6.25,-40.09,-40.59,0,*50
1483315589.5,26416,10.44,73084.5,-6.25,-40.03,-40.47,0,*56
1483315590.76,26417,10.44,73090.8,-6.25,-40.41,-40.79,0,*5C
1483315592.0,26418,10.44,73092.5,-6.25,-40.41,-40.65,0,*5E
1483315593.23,26419,10.44,73096.8,-6.29,-40.47,-40.91,0,*5E
1483315594.46,26420,10.44,73092.3,-6.25,-40.47,-40.79,0,*5E
1483315595.71,26421,10.5,73088.3,-6.29,-40.29,-40.47,0,*56
1483315596.97,26422,10.44,73086.8,-6.25,-40.29,-40.59,0,*56
1483315598.21,26423,10.44,73090.8,-6.25,-40.09,-40.47,0,*5A
1483315599.47,26424,10.5,73076.5,-6.29,-39.91,-40.29,0,*56
1483315600.72,26425,10.44,73078.3,-6.29,-39.97,-40.35,0,*5C
1483315601.97,26426,10.44,73080.0,-6.29,-39.97,-40.35,0,*5F
1483315603.25,26427,10.44,73088.8,-6.29,-39.71,-40.09,0,*59
1483315604.49,26428,10.44,73084.3,-6.25,-39.65,-40.09,0,*5F
1483315605.74,26429,10.44,73082.5,-6.25,-39.91,-40.09,0,*55
1483315606.98,26430,10.44,73084.8,-6.29,-40.15,-40.53,0,*5C
1483315608.2,26431,10.44,73094.5,-6.29,-40.35,-40.73,0,*5D
1483315609.45,26432,10.44,73104.8,-6.29,-40.47,-40.79,0,*51
1483315610.71,26433,10.44,73090.8,-6.29,-39.71,-40.15,0,*51
1483315611.97,26434,10.44,73096.5,-6.29,-39.85,-40.29,0,*52
1483315613.23,26435,10.44,73090.0,-6.25,-39.97,-40.29,0,*5C
1483315614.46,26436,10.44,73102.0,-6.29,-39.47,-39.91,0,*53
1483315615.72,26437,10.44,73094.8,-6.29,-39.65,-40.09,0,*5D
1483315616.95,26438,10.44,73090.8,-6.29,-39.91,-40.35,0,*56
1483315618.21,26439,10.44,73104.5,-6.25,-39.97,-40.29,0,*50
1483315619.45,26440,10.44,73098.8,-6.25,-39.85,-40.21,0,*55
1483315620.7,26441,10.44,73094.5,-6.29,-39.85,-40.29,0,*50
1483315621.96,26442,10.44,73090.3,-6.29,-39.91,-40.29,0,*56
1483315623.19,26443,10.44,73096.0,-6.25,-40.21,-40.65,0,*56
1483315624.44,26444,10.5,73096.8,-6.25,-40.29,-40.79,0,*54
1483315625.71,26445,10.44,73096.3,-6.25,-40.59,-40.97,0,*52
1483315626.94,26446,10.44,73086.8,-6.29,-40.65,-40.91,0,*54
1483315628.19,26447,10.5,73090.8,-6.29,-40.53,-40.85,0,*55
1483315629.42,26448,10.44,73080.8,-6.29,-40.73,-41.11,0,*54
1483315630.67,26449,10.44,73082.0,-6.29,-40.85,-41.29,0,*57
1483315631.92,26450,10.44,73072.0,-6.29,-40.85,-41.29,0,*5F
1483315633.15,26451,10.44,73072.0,-6.31,-40.85,-41.17,0,*5A
1483315634.35,26452,10.44,73076.0,-6.31,-40.73,-41.17,0,*50
1483315635.6,26453,10.44,73078.3,-6.29,-40.85,-41.17,0,*51
1483315636.84,26454,10.44,73076.8,-6.31,-40.73,-40.97,0,*5F
1483315638.12,26455,10.44,73070.8,-6.33,-40.59,-40.97,0,*54
1483315639.35,26456,10.44,73080.0,-6.31,-40.53,-40.85,0,*5C
1483315640.58,26457,10.44,73078.0,-6.31,-40.47,-40.85,0,*58
1483315641.82,26458,10.44,73080.5,-6.31,-40.47,-40.85,0,*57
1483315643.02,26459,10.44,73078.5,-6.31,-40.65,-41.11,0,*5A
1483315644.22,26460,10.44,73082.5,-6.31,-40.73,-41.17,0,*51
1483315645.47,26461,10.44,73074.8,-6.33,-40.79,-41.17,0,*58
1483315646.7,26462,10.44,73082.3,-6.33,-40.53,-40.91,0,*5C
1483315647.96,26463,10.44,73086.0,-6.33,-40.53,-40.97,0,*5B
1483315649.22,26464,10.44,73080.5,-6.31,-40.59,-40.97,0,*54
1483315650.45,26465,10.44,73076.8,-6.33,-40.73,-41.17,0,*56
1483315651.7,26466,10.44,73080.3,-6.33,-40.73,-41.23,0,*52
1483315652.96,26467,10.44,73082.8,-6.33,-40.73,-40.97,0,*5D
1483315654.22,26468,10.44,73070.3,-6.33,-40.59,-40.91,0,*5C
1483315655.48,26469,10.44,73072.8,-6.33,-40.73,-40.97,0,*53
1483315656.74,26470,10.44,73082.0,-6.33,-40.73,-40.97,0,*5B
1483315657.97,26471,10.44,73078.5,-6.33,-40.73,-41.17,0,*53
1483315659.2,26472,10.44,73070.0,-6.31,-40.85,-41.17,0,*5B
1483315660.43,26473,10.44,73070.8,-6.33,-40.73,-41.11,0,*57
1483315661.67,26474,10.44,73072.0,-6.35,-40.59,-40.91,0,*57
1483315662.92,26475,10.44,73074.0,-6.35,-40.41,-40.79,0,*59
1483315664.15,26476,10.44,73080.8,-6.35,-40.53,-40.79,0,*59
1483315665.4,26477,10.44,73070.5,-6.35,-40.41,-40.79,0,*5B
1483315666.63,26478,10.5,73080.3,-6.35,-40.53,-40.79,0,*57
1483315667.86,26479,10.44,73084.5,-6.35,-40.41,-40.73,0,*5F
1483315669.07,26480,10.44,73094.3,-6.35,-40.53,-40.91,0,*56
1483315670.3,26481,10.44,73098.3,-6.35,-40.53,-40.97,0,*51
1483315671.55,26482,10.44,73096.8,-6.37,-40.65,-40.85,0,*56
1483315672.76,26483,10.44,73096.3,-6.35,-40.73,-41.11,0,*5E
1483315674.04,26484,10.44,73100.8,-6.37,-40.85,-41.23,0,*53
1483315675.28,26485,10.44,73094.5,-6.35,-40.59,-40.91,0,*59
1483315676.54,26486,10.44,73094.0,-6.35,-40.41,-40.79,0,*55
1483315677.79,26487,10.44,73082.5,-6.35,-40.41,-40.79,0,*54
1483315679.05,26488,10.5,73074.3,-6.37,-40.47,-40.85,0,*5C
1483315680.3,26489,10.44,73072.3,-6.37,-40.47,-40.79,0,*5E
1483315681.55,26490,10.44,73084.8,-6.37,-40.41,-40.65,0,*5D
1483315682.81,26491,10.44,73084.8,-6.37,-40.41,-40.65,0,*5C
1483315684.06,26492,10.44,73080.0,-6.37,-40.29,-40.65,0,*51
1483315685.3,26493,10.44,73064.0,-6.35,-40.15,-40.41,0,*5B
1483315686.58,26494,10.44,73078.3,-6.37,-40.21,-40.59,0,*50
1483315687.79,26495,10.44,73076.5,-6.35,-40.35,-40.53,0,*5C
1483315689.04,26496,10.44,73082.0,-6.37,-40.79,-41.03,0,*51
1483315690.29,26497,10.44,73080.3,-6.37,-40.65,-40.97,0,*51
1483315691.58,26498,10.44,73076.0,-6.37,-40.59,-40.97,0,*51
1483315692.85,26499,10.44,73078.3,-6.37,-40.59,-40.79,0,*50
1483315694.11,26500,10.44,73072.3,-6.37,-40.47,-40.85,0,*5D
1483315695.39,26501,10.44,73070.5,-6.37,-40.59,-40.97,0,*50
1483315696.65,26502,10.44,73070.3,-6.37,-40.79,-41.03,0,*5D
1483315697.85,26503,10.44,73070.0,-6.39,-40.53,-41.03,0,*5A
1483315699.08,26504,10.44,73070.5,-6.41,-40.47,-40.73,0,*51